This demonstration page uses our WeatherBlox Daily Observations layout. Learn more.

Left ArrowRight Arrow

36.19886, -115.1175

Hourly Observations for November 18, 2015

Temp ( °F °C ) Dew Point ( °F °C ) Humidity (%) Winds ( mph kmh ) Pressure ( in mb ) Visibility ( mi km ) Precip ( " mm )
12:53 am 00:53 Clear 44 6.7 19 -7.2 37 37 N 6 9 30.16 1021 10 16 0.00 0.00
1:53 am 01:53 Clear 44 6.7 19 -7.2 37 37 NW 7 11 30.13 1020 10 16 0.00 0.00
2:53 am 02:53 Clear 42 5.6 19 -7.2 40 40 NNW 6 9 30.12 1020 10 16 0.00 0.00
3:53 am 03:53 Clear 43 6.1 19 -7.2 38 38 N 3 6 30.11 1020 10 16 0.00 0.00
4:53 am 04:53 Clear 41 5 21 -6.1 45 45 Calm 30.13 1020 10 16 0.00 0.00
5:53 am 05:53 Clear 42 5.6 22 -5.6 45 45 W 3 6 30.12 1020 10 16 0.00 0.00
6:53 am 06:53 Sunny 42 5.6 21 -6.1 43 43 NNW 5 7 30.14 1021 10 16 0.00 0.00
7:53 am 07:53 Sunny 48 8.9 23 -5 37 37 NNW 3 6 30.15 1021 10 16 0.00 0.00
8:53 am 08:53 Sunny 50 10 19 -7.2 29 29 SSE 6 9 30.16 1021 10 16 0.00 0.00
9:53 am 09:53 Sunny 52 11.1 18 -7.8 26 26 SSE 6 9 30.18 1022 10 16 0.00 0.00
10:53 am 10:53 Sunny 55 12.8 19 -7.2 24 24 SE 6 9 30.17 1022 10 16 0.00 0.00
11:53 am 11:53 Sunny 58 14.4 20 -6.7 23 23 SE 5 7 30.14 1021 10 16 0.00 0.00
12:53 pm 12:53 Sunny 61 16.1 22 -5.6 22 22 SE 5 7 30.11 1020 10 16 0.00 0.00
1:53 pm 13:53 Sunny 62 16.7 22 -5.6 21 21 SE 5 7 30.09 1019 10 16 0.00 0.00
2:53 pm 14:53 Sunny 63 17.2 22 -5.6 21 21 SSE 6 9 30.08 1019 10 16 0.00 0.00
3:53 pm 15:53 Sunny 63 17.2 23 -5 22 22 ESE 3 6 30.09 1019 10 16 0.00 0.00
4:53 pm 16:53 Clear 59 15 23 -5 25 25 ESE 5 7 30.09 1019 10 16 0.00 0.00
5:53 pm 17:53 Clear 57 13.9 25 -3.9 29 29 WNW 3 6 30.11 1020 10 16 0.00 0.00
6:53 pm 18:53 Clear 53 11.7 24 -4.4 32 32 NNW 6 9 30.12 1020 10 16 0.00 0.00
7:53 pm 19:53 Clear 52 11.1 26 -3.3 37 37 WNW 3 6 30.13 1020 10 16 0.00 0.00
8:53 pm 20:53 Clear 51 10.6 27 -2.8 39 39 NW 7 11 30.14 1021 10 16 0.00 0.00
9:53 pm 21:53 Clear 51 10.6 28 -2.2 41 41 Calm 30.14 1021 10 16 0.00 0.00
10:53 pm 22:53 Clear 49 9.4 27 -2.8 43 43 Calm 30.15 1021 10 16 0.00 0.00
11:53 pm 23:53 Clear 48 8.9 28 -2.2 46 46 W 6 9 30.14 1021 10 16 0.00 0.00

Powered by AerisWeather